Location: Unspecified
(0.0000°N, 0.0000°E)
Time: 00:30:07
(UTC+00:00)

Hubble Space Telescope - Pass Details

Date: 24 June 2017
Orbit: 538 x 542 km, 28.5° (Epoch: 19 August)

Event Time Altitude Azimuth Distance (km) Brightness Sun altitude
Exits shadow 05:08:07 - 296° (WNW) 2,002 3.3 -12.4°
Reaches altitude 10° 05:09:15 10° 309° (NW) 1,785 3.2 -12.2°
Maximum altitude 05:10:55 12° 333° (NNW) 1,652 3.2 -11.8°
Drops below altitude 10° 05:12:35 10° 357° (N) 1,783 3.7 -11.4°
Sets 05:16:08 0° 28° (NNE) 2,673 5.2 -10.6°
